owner,sensor,date,latitude,longitude,vertical_datum,sea_water_temperature,qcFlag
BHP,ioos:station:wmo:42383:2,2021-03-01T00:06:00Z,27.3704,-89.9241,27.9,23.4,11111222
BHP,ioos:station:wmo:42383:2,2021-03-01T00:26:00Z,27.3704,-89.9241,27.9,22.7,11111222
BHP,ioos:station:wmo:42383:2,2021-03-01T00:46:00Z,27.3704,-89.9241,27.9,22.7,11111222
BHP,ioos:station:wmo:42383:2,2021-03-01T01:06:00Z,27.3704,-89.9241,27.9,22.8,11111222
BHP,ioos:station:wmo:42383:2,2021-03-01T01:26:00Z,27.3704,-89.9241,27.9,22.8,11111222
BHP,ioos:station:wmo:42383:2,2021-03-01T01:46:00Z,27.3704,-89.9241,27.9,22.5,11111222
BHP,ioos:station:wmo:42383:2,2021-03-01T02:06:00Z,27.3704,-89.9241,27.9,23.1,11111222
BHP,ioos:station:wmo:42383:2,2021-03-01T02:26:00Z,27.3704,-89.9241,27.9,23.4,11111222
BHP,ioos:station:wmo:42383:2,2021-03-01T02:46:00Z,27.3704,-89.9241,27.9,23.3,11111222
BHP,ioos:station:wmo:42383:2,2021-03-01T03:06:00Z,27.3704,-89.9241,27.9,23.4,11111222
BHP,ioos:station:wmo:42383:2,2021-03-01T03:26:00Z,27.3704,-89.9241,27.9,22.9,11111222
BHP,ioos:station:wmo:42383:2,2021-03-01T03:46:00Z,27.3704,-89.9241,27.9,23.1,11111222
BHP,ioos:station:wmo:42383:2,2021-03-01T04:06:00Z,27.3704,-89.9241,27.9,23.7,11111222
BHP,ioos:station:wmo:42383:2,2021-03-01T04:26:00Z,27.3704,-89.9241,27.9,23.8,11111222
BHP,ioos:station:wmo:42383:2,2021-03-01T04:46:00Z,27.3704,-89.9241,27.9,23.4,11111222
BHP,ioos:station:wmo:42383:2,2021-03-01T05:06:00Z,27.3704,-89.9241,27.9,24.1,11111222
BHP,ioos:station:wmo:42383:2,2021-03-01T05:26:00Z,27.3704,-89.9241,27.9,23.9,11111222
BHP,ioos:station:wmo:42383:2,2021-03-01T05:46:00Z,27.3704,-89.9241,27.9,23.7,11111222
BHP,ioos:station:wmo:42383:2,2021-03-01T06:06:00Z,27.3704,-89.9241,27.9,23.9,11111222
BHP,ioos:station:wmo:42383:2,2021-03-01T06:26:00Z,27.3704,-89.9241,27.9,24.1,11111222
BHP,ioos:station:wmo:42383:2,2021-03-01T06:46:00Z,27.3704,-89.9241,27.9,23.8,11111222
BHP,ioos:station:wmo:42383:2,2021-03-01T07:06:00Z,27.3704,-89.9241,27.9,24.0,11111222
BHP,ioos:station:wmo:42383:2,2021-03-01T07:26:00Z,27.3704,-89.9241,27.9,23.9,11111222
BHP,ioos:station:wmo:42383:2,2021-03-01T07:46:00Z,27.3704,-89.9241,27.9,24.0,11111222
BHP,ioos:station:wmo:42383:2,2021-03-01T08:06:00Z,27.3704,-89.9241,27.9,24.3,11111222
BHP,ioos:station:wmo:42383:2,2021-03-01T08:26:00Z,27.3704,-89.9241,27.9,24.6,11111222
BHP,ioos:station:wmo:42383:2,2021-03-01T08:46:00Z,27.3704,-89.9241,27.9,24.2,11111222
BHP,ioos:station:wmo:42383:2,2021-03-01T09:06:00Z,27.3704,-89.9241,27.9,24.2,11111222
BHP,ioos:station:wmo:42383:2,2021-03-01T09:26:00Z,27.3704,-89.9241,27.9,24.5,11111222
BHP,ioos:station:wmo:42383:2,2021-03-01T09:46:00Z,27.3704,-89.9241,27.9,24.1,11111222
BHP,ioos:station:wmo:42383:2,2021-03-01T10:06:00Z,27.3704,-89.9241,27.9,24.4,11111222
BHP,ioos:station:wmo:42383:2,2021-03-01T10:26:00Z,27.3704,-89.9241,27.9,24.0,11111222
BHP,ioos:station:wmo:42383:2,2021-03-01T10:46:00Z,27.3704,-89.9241,27.9,24.2,11111222
BHP,ioos:station:wmo:42383:2,2021-03-01T11:06:00Z,27.3704,-89.9241,27.9,24.3,11111222
BHP,ioos:station:wmo:42383:2,2021-03-01T11:26:00Z,27.3704,-89.9241,27.9,24.0,11111222
BHP,ioos:station:wmo:42383:2,2021-03-01T11:46:00Z,27.3704,-89.9241,27.9,24.3,11111222
BHP,ioos:station:wmo:42383:2,2021-03-01T12:06:00Z,27.3704,-89.9241,27.9,24.1,11111222
BHP,ioos:station:wmo:42383:2,2021-03-01T12:26:00Z,27.3704,-89.9241,27.9,24.3,11111222
BHP,ioos:station:wmo:42383:2,2021-03-01T12:46:00Z,27.3704,-89.9241,27.9,24.1,11111222
BHP,ioos:station:wmo:42383:2,2021-03-01T13:06:00Z,27.3704,-89.9241,27.9,24.3,11111222
BHP,ioos:station:wmo:42383:2,2021-03-01T13:26:00Z,27.3704,-89.9241,27.9,24.3,11111222
BHP,ioos:station:wmo:42383:2,2021-03-01T13:46:00Z,27.3704,-89.9241,27.9,23.9,11111222
BHP,ioos:station:wmo:42383:2,2021-03-01T14:06:00Z,27.3704,-89.9241,27.9,23.9,11111222
BHP,ioos:station:wmo:42383:2,2021-03-01T14:26:00Z,27.3704,-89.9241,27.9,23.9,11111222
BHP,ioos:station:wmo:42383:2,2021-03-01T14:46:00Z,27.3704,-89.9241,27.9,24.0,11111222
BHP,ioos:station:wmo:42383:2,2021-03-01T15:06:00Z,27.3704,-89.9241,27.9,24.3,11111222
BHP,ioos:station:wmo:42383:2,2021-03-01T15:26:00Z,27.3704,-89.9241,27.9,24.1,11111222
BHP,ioos:station:wmo:42383:2,2021-03-01T15:46:00Z,27.3704,-89.9241,27.9,24.0,11111222
BHP,ioos:station:wmo:42383:2,2021-03-01T16:06:00Z,27.3704,-89.9241,27.9,23.9,11111222
BHP,ioos:station:wmo:42383:2,2021-03-01T16:26:00Z,27.3704,-89.9241,27.9,23.8,11111222
BHP,ioos:station:wmo:42383:2,2021-03-01T16:46:00Z,27.3704,-89.9241,27.9,23.9,11111222
BHP,ioos:station:wmo:42383:2,2021-03-01T17:06:00Z,27.3704,-89.9241,27.9,24.3,11111222
BHP,ioos:station:wmo:42383:2,2021-03-01T17:26:00Z,27.3704,-89.9241,27.9,23.9,11111222
BHP,ioos:station:wmo:42383:2,2021-03-01T17:46:00Z,27.3704,-89.9241,27.9,23.8,11111222
BHP,ioos:station:wmo:42383:2,2021-03-01T18:06:00Z,27.3704,-89.9241,27.9,23.8,11111222
BHP,ioos:station:wmo:42383:2,2021-03-01T18:26:00Z,27.3704,-89.9241,27.9,24.2,11111222
BHP,ioos:station:wmo:42383:2,2021-03-01T18:46:00Z,27.3704,-89.9241,27.9,23.9,11111222
BHP,ioos:station:wmo:42383:2,2021-03-01T19:06:00Z,27.3704,-89.9241,27.9,23.9,11111222
BHP,ioos:station:wmo:42383:2,2021-03-01T19:26:00Z,27.3704,-89.9241,27.9,24.5,11111222
BHP,ioos:station:wmo:42383:2,2021-03-01T19:46:00Z,27.3704,-89.9241,27.9,24.4,11111222
BHP,ioos:station:wmo:42383:2,2021-03-01T20:06:00Z,27.3704,-89.9241,27.9,24.3,11111222
BHP,ioos:station:wmo:42383:2,2021-03-01T20:26:00Z,27.3704,-89.9241,27.9,24.4,11111222
BHP,ioos:station:wmo:42383:2,2021-03-01T20:45:00Z,27.3704,-89.9241,27.9,24.4,11111222
BHP,ioos:station:wmo:42383:2,2021-03-01T21:05:00Z,27.3704,-89.9241,27.9,24.2,11111222
BHP,ioos:station:wmo:42383:2,2021-03-01T21:25:00Z,27.3704,-89.9241,27.9,24.1,11111222
BHP,ioos:station:wmo:42383:2,2021-03-01T21:45:00Z,27.3704,-89.9241,27.9,24.3,11111222
BHP,ioos:station:wmo:42383:2,2021-03-01T22:05:00Z,27.3704,-89.9241,27.9,24.6,11111222
BHP,ioos:station:wmo:42383:2,2021-03-01T22:26:00Z,27.3704,-89.9241,27.9,24.4,11111222
BHP,ioos:station:wmo:42383:2,2021-03-01T22:46:00Z,27.3704,-89.9241,27.9,24.3,11111222
BHP,ioos:station:wmo:42383:2,2021-03-01T23:06:00Z,27.3704,-89.9241,27.9,24.8,11111222
BHP,ioos:station:wmo:42383:2,2021-03-01T23:26:00Z,27.3704,-89.9241,27.9,24.7,11111222
BHP,ioos:station:wmo:42383:2,2021-03-01T23:46:00Z,27.3704,-89.9241,27.9,24.5,11111222
BHP,ioos:station:wmo:42383:2,2021-03-02T00:06:00Z,27.3704,-89.9241,27.9,24.4,11111222
BHP,ioos:station:wmo:42383:2,2021-03-02T00:26:00Z,27.3704,-89.9241,27.9,24.4,11111222
BHP,ioos:station:wmo:42383:2,2021-03-02T00:46:00Z,27.3704,-89.9241,27.9,24.7,11111222
BHP,ioos:station:wmo:42383:2,2021-03-02T01:06:00Z,27.3704,-89.9241,27.9,24.4,11111222
BHP,ioos:station:wmo:42383:2,2021-03-02T01:25:00Z,27.3704,-89.9241,27.9,24.4,11111222
BHP,ioos:station:wmo:42383:2,2021-03-02T01:45:00Z,27.3704,-89.9241,27.9,24.6,11111222
BHP,ioos:station:wmo:42383:2,2021-03-02T02:05:00Z,27.3704,-89.9241,27.9,24.9,11111222
BHP,ioos:station:wmo:42383:2,2021-03-02T02:25:00Z,27.3704,-89.9241,27.9,24.6,11111222
BHP,ioos:station:wmo:42383:2,2021-03-02T02:45:00Z,27.3704,-89.9241,27.9,24.3,11111222
BHP,ioos:station:wmo:42383:2,2021-03-02T03:05:00Z,27.3704,-89.9241,27.9,24.6,11111222
BHP,ioos:station:wmo:42383:2,2021-03-02T03:25:00Z,27.3704,-89.9241,27.9,24.8,11111222
BHP,ioos:station:wmo:42383:2,2021-03-02T03:45:00Z,27.3704,-89.9241,27.9,24.8,11111222
BHP,ioos:station:wmo:42383:2,2021-03-02T04:05:00Z,27.3704,-89.9241,27.9,24.6,11111222
BHP,ioos:station:wmo:42383:2,2021-03-02T04:25:00Z,27.3704,-89.9241,27.9,24.7,11111222
BHP,ioos:station:wmo:42383:2,2021-03-02T04:45:00Z,27.3704,-89.9241,27.9,24.5,11111222
BHP,ioos:station:wmo:42383:2,2021-03-02T05:05:00Z,27.3704,-89.9241,27.9,24.8,11111222
BHP,ioos:station:wmo:42383:2,2021-03-02T05:25:00Z,27.3704,-89.9241,27.9,24.9,11111222
BHP,ioos:station:wmo:42383:2,2021-03-02T05:45:00Z,27.3704,-89.9241,27.9,24.4,11111222
BHP,ioos:station:wmo:42383:2,2021-03-02T06:05:00Z,27.3704,-89.9241,27.9,24.4,11111222
BHP,ioos:station:wmo:42383:2,2021-03-02T06:25:00Z,27.3704,-89.9241,27.9,24.3,11111222
BHP,ioos:station:wmo:42383:2,2021-03-02T06:45:00Z,27.3704,-89.9241,27.9,24.4,11111222
BHP,ioos:station:wmo:42383:2,2021-03-02T07:05:00Z,27.3704,-89.9241,27.9,24.7,11111222
BHP,ioos:station:wmo:42383:2,2021-03-02T07:25:00Z,27.3704,-89.9241,27.9,24.4,11111222
BHP,ioos:station:wmo:42383:2,2021-03-02T07:45:00Z,27.3704,-89.9241,27.9,24.2,11111222
BHP,ioos:station:wmo:42383:2,2021-03-02T08:05:00Z,27.3704,-89.9241,27.9,24.4,11111222
BHP,ioos:station:wmo:42383:2,2021-03-02T08:25:00Z,27.3704,-89.9241,27.9,24.4,11111222
BHP,ioos:station:wmo:42383:2,2021-03-02T08:45:00Z,27.3704,-89.9241,27.9,24.4,11111222
BHP,ioos:station:wmo:42383:2,2021-03-02T09:05:00Z,27.3704,-89.9241,27.9,24.5,11111222
BHP,ioos:station:wmo:42383:2,2021-03-02T09:25:00Z,27.3704,-89.9241,27.9,24.8,11111222
BHP,ioos:station:wmo:42383:2,2021-03-02T09:45:00Z,27.3704,-89.9241,27.9,24.5,11111222
BHP,ioos:station:wmo:42383:2,2021-03-02T10:05:00Z,27.3704,-89.9241,27.9,24.7,11111222
BHP,ioos:station:wmo:42383:2,2021-03-02T10:25:00Z,27.3704,-89.9241,27.9,24.8,11111222
BHP,ioos:station:wmo:42383:2,2021-03-02T10:45:00Z,27.3704,-89.9241,27.9,24.5,11111222
BHP,ioos:station:wmo:42383:2,2021-03-02T11:05:00Z,27.3704,-89.9241,27.9,24.4,11111222
BHP,ioos:station:wmo:42383:2,2021-03-02T11:25:00Z,27.3704,-89.9241,27.9,24.4,11111222
BHP,ioos:station:wmo:42383:2,2021-03-02T11:45:00Z,27.3704,-89.9241,27.9,23.9,11111222
BHP,ioos:station:wmo:42383:2,2021-03-02T12:05:00Z,27.3704,-89.9241,27.9,24.1,11111222
BHP,ioos:station:wmo:42383:2,2021-03-02T12:25:00Z,27.3704,-89.9241,27.9,23.6,11111222
BHP,ioos:station:wmo:42383:2,2021-03-02T12:45:00Z,27.3704,-89.9241,27.9,23.8,11111222
BHP,ioos:station:wmo:42383:2,2021-03-02T13:05:00Z,27.3704,-89.9241,27.9,23.8,11111222
BHP,ioos:station:wmo:42383:2,2021-03-02T13:25:00Z,27.3704,-89.9241,27.9,24.1,11111222
BHP,ioos:station:wmo:42383:2,2021-03-02T13:45:00Z,27.3704,-89.9241,27.9,24.1,11111222
BHP,ioos:station:wmo:42383:2,2021-03-02T14:05:00Z,27.3704,-89.9241,27.9,23.9,11111222
BHP,ioos:station:wmo:42383:2,2021-03-02T14:25:00Z,27.3704,-89.9241,27.9,23.9,11111222
BHP,ioos:station:wmo:42383:2,2021-03-02T14:45:00Z,27.3704,-89.9241,27.9,24.1,11111222
BHP,ioos:station:wmo:42383:2,2021-03-02T15:05:00Z,27.3704,-89.9241,27.9,23.9,11111222
BHP,ioos:station:wmo:42383:2,2021-03-02T15:25:00Z,27.3704,-89.9241,27.9,24.0,11111222
BHP,ioos:station:wmo:42383:2,2021-03-02T15:45:00Z,27.3704,-89.9241,27.9,23.9,11111222
BHP,ioos:station:wmo:42383:2,2021-03-02T16:05:00Z,27.3704,-89.9241,27.9,23.6,11111222
BHP,ioos:station:wmo:42383:2,2021-03-02T16:25:00Z,27.3704,-89.9241,27.9,23.8,11111222
BHP,ioos:station:wmo:42383:2,2021-03-02T16:45:00Z,27.3704,-89.9241,27.9,23.7,11111222
BHP,ioos:station:wmo:42383:2,2021-03-02T17:05:00Z,27.3704,-89.9241,27.9,23.6,11111222
BHP,ioos:station:wmo:42383:2,2021-03-02T17:25:00Z,27.3704,-89.9241,27.9,23.7,11111222
BHP,ioos:station:wmo:42383:2,2021-03-02T17:45:00Z,27.3704,-89.9241,27.9,23.9,11111222
BHP,ioos:station:wmo:42383:2,2021-03-02T18:05:00Z,27.3704,-89.9241,27.9,23.7,11111222
BHP,ioos:station:wmo:42383:2,2021-03-02T18:25:00Z,27.3704,-89.9241,27.9,23.8,11111222
BHP,ioos:station:wmo:42383:2,2021-03-02T18:45:00Z,27.3704,-89.9241,27.9,24.1,11111222
BHP,ioos:station:wmo:42383:2,2021-03-02T19:05:00Z,27.3704,-89.9241,27.9,23.7,11111222
BHP,ioos:station:wmo:42383:2,2021-03-02T19:25:00Z,27.3704,-89.9241,27.9,23.3,11111222
BHP,ioos:station:wmo:42383:2,2021-03-02T19:45:00Z,27.3704,-89.9241,27.9,23.3,11111222
BHP,ioos:station:wmo:42383:2,2021-03-02T20:05:00Z,27.3704,-89.9241,27.9,23.3,11111222
BHP,ioos:station:wmo:42383:2,2021-03-02T20:25:00Z,27.3704,-89.9241,27.9,23.0,11111222
BHP,ioos:station:wmo:42383:2,2021-03-02T20:45:00Z,27.3704,-89.9241,27.9,24.3,11111222
BHP,ioos:station:wmo:42383:2,2021-03-02T21:05:00Z,27.3704,-89.9241,27.9,24.5,11111222
BHP,ioos:station:wmo:42383:2,2021-03-02T21:25:00Z,27.3704,-89.9241,27.9,24.4,11111222
BHP,ioos:station:wmo:42383:2,2021-03-02T21:45:00Z,27.3704,-89.9241,27.9,24.4,11111222
BHP,ioos:station:wmo:42383:2,2021-03-02T22:05:00Z,27.3704,-89.9241,27.9,24.4,11111222
BHP,ioos:station:wmo:42383:2,2021-03-02T22:25:00Z,27.3704,-89.9241,27.9,24.6,11111222
BHP,ioos:station:wmo:42383:2,2021-03-02T22:45:00Z,27.3704,-89.9241,27.9,23.6,11111222
BHP,ioos:station:wmo:42383:2,2021-03-02T23:05:00Z,27.3704,-89.9241,27.9,22.8,11111222
BHP,ioos:station:wmo:42383:2,2021-03-02T23:25:00Z,27.3704,-89.9241,27.9,23.1,11111222
BHP,ioos:station:wmo:42383:2,2021-03-02T23:45:00Z,27.3704,-89.9241,27.9,23.4,11111222
BHP,ioos:station:wmo:42383:2,2021-03-03T00:05:00Z,27.3704,-89.9241,27.9,24.0,11111222
BHP,ioos:station:wmo:42383:2,2021-03-03T00:25:00Z,27.3704,-89.9241,27.9,24.2,11111222
BHP,ioos:station:wmo:42383:2,2021-03-03T00:45:00Z,27.3704,-89.9241,27.9,24.0,11111222
BHP,ioos:station:wmo:42383:2,2021-03-03T01:05:00Z,27.3704,-89.9241,27.9,23.9,11111222
BHP,ioos:station:wmo:42383:2,2021-03-03T01:25:00Z,27.3704,-89.9241,27.9,23.4,11111222
BHP,ioos:station:wmo:42383:2,2021-03-03T01:45:00Z,27.3704,-89.9241,27.9,23.1,11111222
BHP,ioos:station:wmo:42383:2,2021-03-03T02:05:00Z,27.3704,-89.9241,27.9,23.5,11111222
BHP,ioos:station:wmo:42383:2,2021-03-03T02:25:00Z,27.3704,-89.9241,27.9,23.1,11111222
BHP,ioos:station:wmo:42383:2,2021-03-03T02:45:00Z,27.3704,-89.9241,27.9,23.6,11111222
BHP,ioos:station:wmo:42383:2,2021-03-03T03:05:00Z,27.3704,-89.9241,27.9,23.3,11111222
BHP,ioos:station:wmo:42383:2,2021-03-03T03:25:00Z,27.3704,-89.9241,27.9,24.2,11111222
BHP,ioos:station:wmo:42383:2,2021-03-03T03:45:00Z,27.3704,-89.9241,27.9,24.5,11111222
BHP,ioos:station:wmo:42383:2,2021-03-03T04:05:00Z,27.3704,-89.9241,27.9,24.3,11111222
BHP,ioos:station:wmo:42383:2,2021-03-03T04:25:00Z,27.3704,-89.9241,27.9,24.4,11111222
BHP,ioos:station:wmo:42383:2,2021-03-03T04:45:00Z,27.3704,-89.9241,27.9,24.5,11111222
BHP,ioos:station:wmo:42383:2,2021-03-03T05:05:00Z,27.3704,-89.9241,27.9,24.1,11111222
BHP,ioos:station:wmo:42383:2,2021-03-03T05:25:00Z,27.3704,-89.9241,27.9,24.2,11111222
BHP,ioos:station:wmo:42383:2,2021-03-03T05:45:00Z,27.3704,-89.9241,27.9,24.2,11111222
BHP,ioos:station:wmo:42383:2,2021-03-03T06:05:00Z,27.3704,-89.9241,27.9,24.2,11111222
BHP,ioos:station:wmo:42383:2,2021-03-03T06:25:00Z,27.3704,-89.9241,27.9,23.8,11111222
BHP,ioos:station:wmo:42383:2,2021-03-03T06:45:00Z,27.3704,-89.9241,27.9,23.9,11111222
BHP,ioos:station:wmo:42383:2,2021-03-03T07:05:00Z,27.3704,-89.9241,27.9,23.5,11111222
BHP,ioos:station:wmo:42383:2,2021-03-03T07:25:00Z,27.3704,-89.9241,27.9,23.6,11111222
BHP,ioos:station:wmo:42383:2,2021-03-03T07:45:00Z,27.3704,-89.9241,27.9,23.8,11111222
BHP,ioos:station:wmo:42383:2,2021-03-03T08:05:00Z,27.3704,-89.9241,27.9,23.5,11111222
BHP,ioos:station:wmo:42383:2,2021-03-03T08:25:00Z,27.3704,-89.9241,27.9,23.6,11111222
BHP,ioos:station:wmo:42383:2,2021-03-03T08:45:00Z,27.3704,-89.9241,27.9,23.5,11111222
BHP,ioos:station:wmo:42383:2,2021-03-03T09:05:00Z,27.3704,-89.9241,27.9,23.3,11111222
BHP,ioos:station:wmo:42383:2,2021-03-03T09:25:00Z,27.3704,-89.9241,27.9,23.4,11111222
BHP,ioos:station:wmo:42383:2,2021-03-03T09:45:00Z,27.3704,-89.9241,27.9,23.3,11111222
BHP,ioos:station:wmo:42383:2,2021-03-03T10:05:00Z,27.3704,-89.9241,27.9,23.3,11111222
BHP,ioos:station:wmo:42383:2,2021-03-03T10:25:00Z,27.3704,-89.9241,27.9,23.3,11111222
BHP,ioos:station:wmo:42383:2,2021-03-03T10:45:00Z,27.3704,-89.9241,27.9,22.8,11111222
BHP,ioos:station:wmo:42383:2,2021-03-03T11:05:00Z,27.3704,-89.9241,27.9,23.1,11111222
BHP,ioos:station:wmo:42383:2,2021-03-03T11:25:00Z,27.3704,-89.9241,27.9,23.2,11111222
BHP,ioos:station:wmo:42383:2,2021-03-03T11:45:00Z,27.3704,-89.9241,27.9,23.2,11111222
BHP,ioos:station:wmo:42383:2,2021-03-03T12:05:00Z,27.3704,-89.9241,27.9,22.9,11111222
BHP,ioos:station:wmo:42383:2,2021-03-03T12:25:00Z,27.3704,-89.9241,27.9,23.3,11111222
BHP,ioos:station:wmo:42383:2,2021-03-03T12:45:00Z,27.3704,-89.9241,27.9,22.9,11111222
BHP,ioos:station:wmo:42383:2,2021-03-03T13:05:00Z,27.3704,-89.9241,27.9,22.9,11111222
BHP,ioos:station:wmo:42383:2,2021-03-03T13:25:00Z,27.3704,-89.9241,27.9,23.1,11111222
BHP,ioos:station:wmo:42383:2,2021-03-03T13:45:00Z,27.3704,-89.9241,27.9,23.0,11111222
BHP,ioos:station:wmo:42383:2,2021-03-03T14:05:00Z,27.3704,-89.9241,27.9,23.0,11111222
BHP,ioos:station:wmo:42383:2,2021-03-03T14:25:00Z,27.3704,-89.9241,27.9,23.2,11111222
BHP,ioos:station:wmo:42383:2,2021-03-03T14:45:00Z,27.3704,-89.9241,27.9,23.2,11111222
BHP,ioos:station:wmo:42383:2,2021-03-03T15:05:00Z,27.3704,-89.9241,27.9,23.4,11111222
BHP,ioos:station:wmo:42383:2,2021-03-03T15:25:00Z,27.3704,-89.9241,27.9,23.1,11111222
BHP,ioos:station:wmo:42383:2,2021-03-03T15:45:00Z,27.3704,-89.9241,27.9,23.4,11111222
BHP,ioos:station:wmo:42383:2,2021-03-03T16:05:00Z,27.3704,-89.9241,27.9,23.4,11111222
BHP,ioos:station:wmo:42383:2,2021-03-03T16:25:00Z,27.3704,-89.9241,27.9,23.3,11111222
BHP,ioos:station:wmo:42383:2,2021-03-03T16:45:00Z,27.3704,-89.9241,27.9,23.4,11111222
BHP,ioos:station:wmo:42383:2,2021-03-03T17:05:00Z,27.3704,-89.9241,27.9,23.2,11111222
BHP,ioos:station:wmo:42383:2,2021-03-03T17:25:00Z,27.3704,-89.9241,27.9,23.4,11111222
BHP,ioos:station:wmo:42383:2,2021-03-03T17:45:00Z,27.3704,-89.9241,27.9,23.1,11111222
BHP,ioos:station:wmo:42383:2,2021-03-03T18:05:00Z,27.3704,-89.9241,27.9,23.2,11111222
BHP,ioos:station:wmo:42383:2,2021-03-03T18:25:00Z,27.3704,-89.9241,27.9,23.5,11111222
BHP,ioos:station:wmo:42383:2,2021-03-03T18:45:00Z,27.3704,-89.9241,27.9,23.2,11111222
BHP,ioos:station:wmo:42383:2,2021-03-03T19:05:00Z,27.3704,-89.9241,27.9,23.4,11111222
BHP,ioos:station:wmo:42383:2,2021-03-03T19:25:00Z,27.3704,-89.9241,27.9,23.4,11111222
BHP,ioos:station:wmo:42383:2,2021-03-03T19:45:00Z,27.3704,-89.9241,27.9,22.8,11111222
BHP,ioos:station:wmo:42383:2,2021-03-03T20:05:00Z,27.3704,-89.9241,27.9,23.2,11111222
BHP,ioos:station:wmo:42383:2,2021-03-03T20:25:00Z,27.3704,-89.9241,27.9,23.1,11111222
BHP,ioos:station:wmo:42383:2,2021-03-03T20:45:00Z,27.3704,-89.9241,27.9,22.8,11111222
BHP,ioos:station:wmo:42383:2,2021-03-03T21:05:00Z,27.3704,-89.9241,27.9,23.1,11111222
BHP,ioos:station:wmo:42383:2,2021-03-03T21:25:00Z,27.3704,-89.9241,27.9,23.1,11111222
BHP,ioos:station:wmo:42383:2,2021-03-03T21:45:00Z,27.3704,-89.9241,27.9,22.8,11111222
BHP,ioos:station:wmo:42383:2,2021-03-03T22:05:00Z,27.3704,-89.9241,27.9,22.6,11111222
BHP,ioos:station:wmo:42383:2,2021-03-03T22:25:00Z,27.3704,-89.9241,27.9,23.0,11111222
BHP,ioos:station:wmo:42383:2,2021-03-03T22:45:00Z,27.3704,-89.9241,27.9,23.4,11111222
BHP,ioos:station:wmo:42383:2,2021-03-03T23:05:00Z,27.3704,-89.9241,27.9,23.6,11111222
BHP,ioos:station:wmo:42383:2,2021-03-03T23:25:00Z,27.3704,-89.9241,27.9,23.2,11111222
BHP,ioos:station:wmo:42383:2,2021-03-03T23:45:00Z,27.3704,-89.9241,27.9,23.2,11111222
BHP,ioos:station:wmo:42383:2,2021-03-04T00:05:00Z,27.3704,-89.9241,27.9,23.6,11111222
BHP,ioos:station:wmo:42383:2,2021-03-04T00:25:00Z,27.3704,-89.9241,27.9,23.5,11111222
BHP,ioos:station:wmo:42383:2,2021-03-04T00:45:00Z,27.3704,-89.9241,27.9,23.8,11111222
BHP,ioos:station:wmo:42383:2,2021-03-04T01:05:00Z,27.3704,-89.9241,27.9,23.5,11111222
BHP,ioos:station:wmo:42383:2,2021-03-04T01:25:00Z,27.3704,-89.9241,27.9,23.8,11111222
BHP,ioos:station:wmo:42383:2,2021-03-04T01:45:00Z,27.3704,-89.9241,27.9,23.2,11111222
BHP,ioos:station:wmo:42383:2,2021-03-04T02:05:00Z,27.3704,-89.9241,27.9,23.2,11111222
BHP,ioos:station:wmo:42383:2,2021-03-04T02:25:00Z,27.3704,-89.9241,27.9,23.4,11111222
BHP,ioos:station:wmo:42383:2,2021-03-04T02:45:00Z,27.3704,-89.9241,27.9,23.2,11111222
BHP,ioos:station:wmo:42383:2,2021-03-04T03:05:00Z,27.3704,-89.9241,27.9,23.5,11111222
BHP,ioos:station:wmo:42383:2,2021-03-04T03:25:00Z,27.3704,-89.9241,27.9,23.4,11111222
BHP,ioos:station:wmo:42383:2,2021-03-04T03:45:00Z,27.3704,-89.9241,27.9,23.7,11111222
BHP,ioos:station:wmo:42383:2,2021-03-04T04:05:00Z,27.3704,-89.9241,27.9,23.7,11111222
BHP,ioos:station:wmo:42383:2,2021-03-04T04:25:00Z,27.3704,-89.9241,27.9,23.4,11111222
BHP,ioos:station:wmo:42383:2,2021-03-04T04:45:00Z,27.3704,-89.9241,27.9,23.4,11111222
BHP,ioos:station:wmo:42383:2,2021-03-04T05:05:00Z,27.3704,-89.9241,27.9,23.4,11111222
BHP,ioos:station:wmo:42383:2,2021-03-04T05:25:00Z,27.3704,-89.9241,27.9,23.5,11111222
BHP,ioos:station:wmo:42383:2,2021-03-04T05:45:00Z,27.3704,-89.9241,27.9,23.8,11111222
BHP,ioos:station:wmo:42383:2,2021-03-04T06:05:00Z,27.3704,-89.9241,27.9,23.7,11111222
BHP,ioos:station:wmo:42383:2,2021-03-04T06:25:00Z,27.3704,-89.9241,27.9,23.4,11111222
BHP,ioos:station:wmo:42383:2,2021-03-04T06:45:00Z,27.3704,-89.9241,27.9,23.8,11111222
BHP,ioos:station:wmo:42383:2,2021-03-04T07:05:00Z,27.3704,-89.9241,27.9,23.8,11111222
BHP,ioos:station:wmo:42383:2,2021-03-04T07:25:00Z,27.3704,-89.9241,27.9,23.9,11111222
BHP,ioos:station:wmo:42383:2,2021-03-04T07:45:00Z,27.3704,-89.9241,27.9,23.7,11111222
BHP,ioos:station:wmo:42383:2,2021-03-04T08:05:00Z,27.3704,-89.9241,27.9,23.8,11111222
BHP,ioos:station:wmo:42383:2,2021-03-04T08:25:00Z,27.3704,-89.9241,27.9,23.9,11111222
BHP,ioos:station:wmo:42383:2,2021-03-04T08:45:00Z,27.3704,-89.9241,27.9,23.4,11111222
BHP,ioos:station:wmo:42383:2,2021-03-04T09:05:00Z,27.3704,-89.9241,27.9,23.5,11111222
BHP,ioos:station:wmo:42383:2,2021-03-04T09:25:00Z,27.3704,-89.9241,27.9,23.6,11111222
BHP,ioos:station:wmo:42383:2,2021-03-04T09:45:00Z,27.3704,-89.9241,27.9,23.7,11111222
BHP,ioos:station:wmo:42383:2,2021-03-04T10:05:00Z,27.3704,-89.9241,27.9,23.4,11111222
BHP,ioos:station:wmo:42383:2,2021-03-04T10:25:00Z,27.3704,-89.9241,27.9,23.4,11111222
BHP,ioos:station:wmo:42383:2,2021-03-04T10:45:00Z,27.3704,-89.9241,27.9,23.4,11111222
BHP,ioos:station:wmo:42383:2,2021-03-04T11:05:00Z,27.3704,-89.9241,27.9,23.6,11111222
BHP,ioos:station:wmo:42383:2,2021-03-04T11:25:00Z,27.3704,-89.9241,27.9,23.5,11111222
BHP,ioos:station:wmo:42383:2,2021-03-04T11:45:00Z,27.3704,-89.9241,27.9,23.4,11111222
BHP,ioos:station:wmo:42383:2,2021-03-04T12:05:00Z,27.3704,-89.9241,27.9,23.6,11111222
BHP,ioos:station:wmo:42383:2,2021-03-04T12:25:00Z,27.3704,-89.9241,27.9,23.4,11111222
BHP,ioos:station:wmo:42383:2,2021-03-04T12:45:00Z,27.3704,-89.9241,27.9,23.4,11111222
BHP,ioos:station:wmo:42383:2,2021-03-04T13:05:00Z,27.3704,-89.9241,27.9,23.6,11111222
BHP,ioos:station:wmo:42383:2,2021-03-04T13:25:00Z,27.3704,-89.9241,27.9,23.4,11111222
BHP,ioos:station:wmo:42383:2,2021-03-04T13:45:00Z,27.3704,-89.9241,27.9,23.5,11111222
BHP,ioos:station:wmo:42383:2,2021-03-04T14:05:00Z,27.3704,-89.9241,27.9,22.5,11111222
BHP,ioos:station:wmo:42383:2,2021-03-04T14:25:00Z,27.3704,-89.9241,27.9,23.1,11111222
BHP,ioos:station:wmo:42383:2,2021-03-04T14:45:00Z,27.3704,-89.9241,27.9,23.1,11111222
BHP,ioos:station:wmo:42383:2,2021-03-04T15:05:00Z,27.3704,-89.9241,27.9,23.5,11111222
BHP,ioos:station:wmo:42383:2,2021-03-04T15:25:00Z,27.3704,-89.9241,27.9,23.0,11111222
BHP,ioos:station:wmo:42383:2,2021-03-04T15:45:00Z,27.3704,-89.9241,27.9,23.0,11111222
BHP,ioos:station:wmo:42383:2,2021-03-04T16:05:00Z,27.3704,-89.9241,27.9,23.4,11111222
BHP,ioos:station:wmo:42383:2,2021-03-04T16:25:00Z,27.3704,-89.9241,27.9,23.4,11111222
BHP,ioos:station:wmo:42383:2,2021-03-04T16:45:00Z,27.3704,-89.9241,27.9,23.2,11111222
BHP,ioos:station:wmo:42383:2,2021-03-04T17:05:00Z,27.3704,-89.9241,27.9,23.4,11111222
BHP,ioos:station:wmo:42383:2,2021-03-04T17:25:00Z,27.3704,-89.9241,27.9,23.2,11111222
BHP,ioos:station:wmo:42383:2,2021-03-04T17:45:00Z,27.3704,-89.9241,27.9,23.4,11111222
BHP,ioos:station:wmo:42383:2,2021-03-04T18:05:00Z,27.3704,-89.9241,27.9,23.3,11111222
BHP,ioos:station:wmo:42383:2,2021-03-04T18:25:00Z,27.3704,-89.9241,27.9,23.5,11111222
BHP,ioos:station:wmo:42383:2,2021-03-04T18:45:00Z,27.3704,-89.9241,27.9,23.0,11111222
BHP,ioos:station:wmo:42383:2,2021-03-04T19:05:00Z,27.3704,-89.9241,27.9,23.4,11111222